TimeCDT,TemperatureF,Dew PointF,Humidity,Sea Level PressureIn,VisibilityMPH,Wind Direction,Wind SpeedMPH,Gust SpeedMPH,PrecipitationIn,Events,Conditions,WindDirDegrees,DateUTC
12:52 AM,37.0,32.0,82,30.09,10.0,NNE,11.5,-,N/A,,Clear,20,2013-10-28 05:52:00
1:52 AM,36.0,32.0,86,30.12,10.0,NNE,12.7,-,N/A,,Clear,20,2013-10-28 06:52:00
2:52 AM,34.0,30.9,89,30.14,10.0,NNE,11.5,-,N/A,,Clear,20,2013-10-28 07:52:00
3:52 AM,34.0,30.9,89,30.16,10.0,NNE,12.7,-,N/A,,Clear,30,2013-10-28 08:52:00
4:52 AM,32.0,30.0,92,30.20,10.0,NNE,10.4,-,N/A,,Clear,20,2013-10-28 09:52:00
5:52 AM,30.9,28.9,92,30.23,10.0,NNE,12.7,-,N/A,,Clear,20,2013-10-28 10:52:00
6:52 AM,30.9,28.9,92,30.27,10.0,NNE,12.7,-,N/A,,Clear,20,2013-10-28 11:52:00
7:52 AM,30.0,28.9,96,30.30,10.0,NNE,10.4,-,N/A,,Partly Cloudy,20,2013-10-28 12:52:00
8:52 AM,33.1,30.9,92,30.33,10.0,NE,13.8,-,N/A,,Clear,40,2013-10-28 13:52:00
9:52 AM,36.0,30.9,82,30.35,10.0,NE,24.2,27.6,N/A,,Partly Cloudy,40,2013-10-28 14:52:00
10:32 AM,37.4,30.2,75,30.31,10.0,ENE,23.0,27.6,N/A,,Mostly Cloudy,60,2013-10-28 15:32:00
10:52 AM,39.0,30.9,73,30.35,10.0,ENE,17.3,27.6,N/A,,Mostly Cloudy,70,2013-10-28 15:52:00
11:52 AM,39.9,30.9,70,30.37,10.0,ENE,19.6,-,N/A,,Overcast,70,2013-10-28 16:52:00
12:52 PM,42.1,32.0,67,30.36,10.0,NE,17.3,29.9,N/A,,Mostly Cloudy,50,2013-10-28 17:52:00
1:17 PM,44.6,32.0,61,30.30,10.0,ENE,16.1,24.2,N/A,,Scattered Clouds,60,2013-10-28 18:17:00
1:52 PM,43.0,30.9,62,30.33,10.0,ENE,18.4,24.2,N/A,,Mostly Cloudy,60,2013-10-28 18:52:00
2:52 PM,45.0,30.9,58,30.33,10.0,ENE,17.3,-,N/A,,Mostly Cloudy,70,2013-10-28 19:52:00
3:52 PM,44.1,30.9,60,30.33,10.0,ENE,16.1,-,N/A,,Partly Cloudy,60,2013-10-28 20:52:00
4:52 PM,43.0,28.9,58,30.34,10.0,NE,16.1,-,N/A,,Clear,50,2013-10-28 21:52:00
5:52 PM,41.0,28.9,62,30.35,10.0,NE,15.0,-,N/A,,Overcast,40,2013-10-28 22:52:00
6:52 PM,39.0,28.9,67,30.35,10.0,NE,12.7,-,N/A,,Overcast,50,2013-10-28 23:52:00
7:52 PM,39.0,28.9,67,30.36,10.0,ENE,15.0,-,N/A,,Mostly Cloudy,60,2013-10-29 00:52:00
8:52 PM,36.0,28.0,73,30.35,10.0,ENE,10.4,-,N/A,,Clear,60,2013-10-29 01:52:00
9:52 PM,33.1,27.0,78,30.36,10.0,ENE,8.1,-,N/A,,Clear,60,2013-10-29 02:52:00
10:52 PM,33.1,28.0,82,30.36,10.0,ENE,6.9,-,N/A,,Clear,60,2013-10-29 03:52:00
11:52 PM,35.1,28.9,78,30.35,10.0,East,8.1,-,N/A,,Partly Cloudy,90,2013-10-29 04:52:00